DW6083 Weather Reports


Display with metric or nautical units.
time (UTC)temp
F
wind
direction
speed
MPH
gust
MPH
rain 1hr
in
rain 24hr
in
rain mn
in
humidity
%
barometer
mb
20260906001609 0 169 0.0 1.0 0.00 0.00 0.00 1011.0
20260906000056 0 169 0.0 0.0 0.00 0.00 0.00 1011.3
20260905234557 0 169 0.0 1.0 0.00 0.00 0.00 1011.2
20260905233108 0 169 0.0 1.0 0.00 0.00 0.00 1011.4
20260905231553 0 169 0.0 1.0 0.00 0.00 0.00 1011.3
20260905230052 0 169 0.0 0.0 0.00 0.00 0.00 1011.7
20260905224546 0 169 0.0 1.0 0.00 0.00 0.00 1011.8
20260905223043 0 169 0.0 0.0 0.00 0.00 0.00 1011.7
20260905221543 0 135 0.0 1.0 0.00 0.00 0.00 1011.5
20260905220029 0 135 0.0 1.0 0.00 0.00 0.00 1011.1
20260905214524 0 134 0.0 1.0 0.00 0.00 0.00 1010.5
20260905213021 0 134 0.0 1.0 0.00 0.00 0.00 1010.3
20260905211534 0 134 0.0 10.0 0.00 0.00 0.00 1010.9
20260905210010 0 185 3.0 15.0 0.00 0.00 0.00 1011.7
20260905204509 0 76 12.0 31.0 0.00 0.00 0.00 1011.3
20260905203002 0 157 4.0 7.0 0.00 0.00 0.00 1010.7
20260905201605 0 157 0.0 6.0 0.00 0.00 0.00 1009.8
20260905200115 0 157 2.0 6.0 0.00 0.00 0.00 1009.9
20260905194548 0 157 2.0 6.0 0.00 0.00 0.00 1010.2
20260905193046 0 157 0.0 6.0 0.00 0.00 0.00 1010.2
20260905191542 0 157 2.0 5.0 0.00 0.00 0.00 1010.4
20260905190037 0 157 1.0 8.0 0.00 0.00 0.00 1010.5
20260905184536 0 157 3.0 7.0 0.00 0.00 0.00 1010.8
20260905183027 0 157 3.0 8.0 0.00 0.00 0.00 1011.1
20260905181522 0 159 4.0 8.0 0.00 0.00 0.00 1011.4
20260905180017 0 159 1.0 3.0 0.00 0.00 0.00 1011.7
20260905174513 0 159 1.0 6.0 0.00 0.00 0.00 1011.8
20260905173010 0 159 2.0 5.0 0.00 0.00 0.00 1012.0
20260905171513 0 159 2.0 9.0 0.00 0.00 0.00 1012.2
20260905170100 0 158 1.0 7.0 0.00 0.00 0.00 1012.5
20260905164555 0 159 2.0 5.0 0.00 0.00 0.00 1012.9
20260905163052 0 159 3.0 7.0 0.00 0.00 0.00 1013.1
20260905161549 0 158 2.0 6.0 0.00 0.00 0.00 1013.3
20260905160052 0 158 1.0 6.0 0.00 0.00 0.00 1013.3
20260905154555 0 159 3.0 7.0 0.00 0.00 0.00 1013.5
20260905153046 0 159 4.0 7.0 0.00 0.00 0.00 1013.6
20260905153017 0 158 3.0 7.0 0.00 0.00 0.00 1013.6
20260905151545 0 158 3.0 7.0 0.00 0.00 0.00 1013.7
20260905150113 0 159 2.0 8.0 0.00 0.00 0.00 1013.9
20260905144550 0 159 2.0 6.0 0.00 0.00 0.00 1014.1
20260905143019 0 158 4.0 8.0 0.00 0.00 0.00 1014.1
20260905141503 0 158 2.0 5.0 0.00 0.00 0.00 1014.2
20260905140052 0 158 1.0 6.0 0.00 0.00 0.00 1014.2
20260905134623 0 158 0.0 3.0 0.00 0.00 0.00 1014.2
20260905133058 0 158 2.0 8.0 0.00 0.00 0.00 1014.3
20260905131525 0 148 0.0 1.0 0.00 0.00 0.00 1014.4
20260905123124 0 148 0.0 1.0 0.00 0.00 0.00 1014.3
20260905121624 0 148 0.0 1.0 0.00 0.00 0.00 1014.2
20260905120014 0 148 0.0 0.0 0.00 0.00 0.00 1014.0
20260905103003 0 148 0.0 0.0 0.00 0.00 0.00 1013.4
20260905101555 0 148 0.0 0.0 0.00 0.00 0.00 1013.4
20260905100031 0 148 0.0 0.0 0.00 0.00 0.00 1013.3
20260905094644 0 148 0.0 0.0 0.00 0.00 0.00 1013.2
20260905091504 0 148 0.0 0.0 0.00 0.00 0.00 1013.3
20260905090003 0 148 0.0 0.0 0.00 0.00 0.00 1013.3
20260905084643 0 148 0.0 0.0 0.00 0.00 0.00 1013.3
20260905080017 0 148 0.0 0.0 0.00 0.00 0.00 1013.5
20260905064518 0 148 0.0 0.0 0.00 0.00 0.00 1013.6
20260905063100 0 148 0.0 0.0 0.00 0.00 0.00 1013.6
20260905061527 0 148 0.0 0.0 0.00 0.00 0.00 1013.9
20260905060017 0 148 0.0 0.0 0.00 0.00 0.00 1013.9
20260905054512 0 148 0.0 0.0 0.00 0.00 0.00 1014.2
20260905053117 0 148 0.0 0.0 0.00 0.00 0.00 1014.2
20260905051502 0 148 0.0 0.0 0.00 0.00 0.00 1014.2
20260905050057 0 148 0.0 0.0 0.00 0.00 0.00 1014.1
20260905044554 0 148 0.0 1.0 0.00 0.00 0.00 1014.4
20260905043108 0 148 0.0 0.0 0.00 0.00 0.00 1014.6
20260905041541 0 148 0.0 2.0 0.00 0.00 0.00 1014.4
20260905040030 0 148 0.0 2.0 0.00 0.00 0.00 1014.5
20260905034529 0 148 0.0 1.0 0.00 0.00 0.00 1014.5
20260905033023 0 148 0.0 0.0 0.00 0.00 0.00 1014.7
20260905031523 0 148 0.0 0.0 0.00 0.00 0.00 1014.8
20260905030023 0 148 0.0 0.0 0.00 0.00 0.00 1014.7
20260905024522 0 148 0.0 1.0 0.00 0.00 0.00 1014.9
20260905023021 0 148 0.0 3.0 0.00 0.00 0.00 1014.9
20260905021521 0 148 1.0 6.0 0.00 0.00 0.00 1014.8
20260905020020 0 148 0.0 0.0 0.00 0.00 0.00 1014.5
20260905014520 0 148 0.0 0.0 0.00 0.00 0.00 1014.7
20260905013022 0 148 0.0 0.0 0.00 0.00 0.00 1014.7
20260905011519 0 148 0.0 0.0 0.00 0.00 0.00 1014.7
20260905010021 0 148 0.0 0.0 0.00 0.00 0.00 1014.5
20260905004519 0 148 0.0 0.0 0.00 0.00 0.00 1014.4
20260905003021 0 148 0.0 0.0 0.00 0.00 0.00 1014.2